User: anonymous   Login
Location: Unspecified
(48.7670°N, 0.0000°E)
Time: 07:47:36
(UTC+00:00)
Language:

Tiros 1 despin weight - Orbit

View from above orbital plane
View from above orbital plane
View from above satellite
View from above satellite

Ground track
Ground track

The orbit data is extracted from the following two-line orbital elements,

1   115U 60002D   19176.41542431 -.00000144 +00000-0 +10082-4 0  9998
2   115 048.1649 195.7140 0033666 111.4933 248.9574 14.83450016138658
Epoch (UTC): 25 June 2019 09:58:12
Eccentricity: 0.0033666
inclination: 48.1649°
perigee height: 595 km
apogee height: 642 km
right ascension of ascending node: 195.7140°
argument of perigee: 111.4933°
revolutions per day: 14.83450016
mean anomaly at epoch: 248.9574°
orbit number at epoch: 13865

The dashed part of the orbit path shows where the satellite is in the earth's shadow,  

DLR